TimeMST,TemperatureF,Dew PointF,Humidity,Sea Level PressureIn,VisibilityMPH,Wind Direction,Wind SpeedMPH,Gust SpeedMPH,PrecipitationIn,Events,Conditions,WindDirDegrees,DateUTC
12:15 AM,33.8,29.1,83,29.99,10.0,West,10.4,-,N/A,,Clear,270,2013-12-06 07:15:00
12:35 AM,33.8,28.8,82,29.99,10.0,West,12.7,-,N/A,,Clear,280,2013-12-06 07:35:00
12:55 AM,34.0,28.8,81,29.99,10.0,West,8.1,-,N/A,,Clear,270,2013-12-06 07:55:00
1:15 AM,33.6,28.2,81,29.99,10.0,West,8.1,-,N/A,,Clear,270,2013-12-06 08:15:00
1:35 AM,34.7,28.4,78,30.00,10.0,West,3.5,-,N/A,,Clear,280,2013-12-06 08:35:00
1:55 AM,34.0,28.0,79,30.01,10.0,Calm,Calm,-,N/A,,Clear,0,2013-12-06 08:55:00
2:15 AM,32.4,27.5,82,30.01,10.0,Calm,Calm,-,N/A,,Clear,0,2013-12-06 09:15:00
2:35 AM,32.0,27.7,84,30.01,10.0,West,10.4,-,N/A,,Scattered Clouds,260,2013-12-06 09:35:00
2:55 AM,35.6,29.3,78,30.03,10.0,West,9.2,-,N/A,,Mostly Cloudy,260,2013-12-06 09:55:00
3:15 AM,35.8,29.1,77,30.04,10.0,West,8.1,-,N/A,,Overcast,270,2013-12-06 10:15:00
3:35 AM,34.9,28.8,78,30.04,10.0,West,11.5,-,N/A,,Scattered Clouds,270,2013-12-06 10:35:00
3:55 AM,34.2,28.2,79,30.04,10.0,West,13.8,-,N/A,,Scattered Clouds,260,2013-12-06 10:55:00
4:15 AM,33.8,27.5,78,30.03,10.0,West,15.0,-,N/A,,Clear,270,2013-12-06 11:15:00
4:35 AM,33.8,26.2,74,30.04,10.0,West,13.8,-,N/A,,Clear,270,2013-12-06 11:35:00
4:55 AM,33.4,25.9,74,30.04,10.0,West,11.5,-,N/A,,Clear,260,2013-12-06 11:55:00
5:15 AM,32.7,25.7,75,30.07,10.0,NW,3.5,-,N/A,,Clear,310,2013-12-06 12:15:00
5:35 AM,30.4,24.6,79,30.08,10.0,Calm,Calm,-,N/A,,Clear,0,2013-12-06 12:35:00
5:55 AM,32.5,25.5,75,30.08,10.0,Calm,Calm,-,N/A,,Scattered Clouds,0,2013-12-06 12:55:00
6:15 AM,31.3,23.9,74,30.08,10.0,West,10.4,-,N/A,,Scattered Clouds,270,2013-12-06 13:15:00
6:35 AM,29.8,23.7,78,30.08,10.0,West,6.9,-,N/A,,Clear,270,2013-12-06 13:35:00
6:55 AM,28.0,23.5,83,30.09,10.0,West,10.4,-,N/A,,Clear,280,2013-12-06 13:55:00
7:15 AM,30.0,24.4,80,30.09,10.0,West,6.9,-,N/A,,Clear,260,2013-12-06 14:15:00
7:35 AM,30.2,24.4,79,30.11,10.0,SE,3.5,-,N/A,,Clear,140,2013-12-06 14:35:00
7:55 AM,31.1,25.0,78,30.11,10.0,WSW,6.9,-,N/A,,Clear,250,2013-12-06 14:55:00
8:15 AM,32.4,25.5,76,30.12,10.0,WSW,6.9,-,N/A,,Clear,250,2013-12-06 15:15:00
8:35 AM,34.5,25.0,68,30.13,10.0,WSW,8.1,-,N/A,,Clear,240,2013-12-06 15:35:00
8:55 AM,35.6,24.3,63,30.13,10.0,WSW,9.2,-,N/A,,Clear,250,2013-12-06 15:55:00
9:20 AM,37.4,23.0,56,30.15,10.0,WSW,8.1,-,N/A,,Clear,250,2013-12-06 16:20:00
9:35 AM,38.3,22.6,53,30.14,10.0,West,10.4,-,N/A,,Clear,260,2013-12-06 16:35:00
9:55 AM,39.9,22.8,50,30.15,10.0,West,11.5,-,N/A,,Clear,280,2013-12-06 16:55:00
10:15 AM,41.2,21.9,46,30.15,10.0,West,13.8,17.3,N/A,,Clear,260,2013-12-06 17:15:00
10:35 AM,41.7,21.0,44,30.15,10.0,West,10.4,16.1,N/A,,Clear,270,2013-12-06 17:35:00
10:55 AM,42.1,20.8,43,30.15,10.0,WSW,10.4,17.3,N/A,,Clear,250,2013-12-06 17:55:00
11:15 AM,42.8,21.0,42,30.14,10.0,WSW,13.8,-,N/A,,Clear,250,2013-12-06 18:15:00
11:35 AM,44.1,20.3,39,30.14,10.0,West,10.4,-,N/A,,Clear,260,2013-12-06 18:35:00
11:55 AM,44.2,19.2,37,30.13,10.0,West,6.9,-,N/A,,Clear,260,2013-12-06 18:55:00
12:15 PM,45.3,17.2,33,30.12,10.0,West,8.1,-,N/A,,Clear,260,2013-12-06 19:15:00
12:35 PM,45.1,16.9,32,30.11,10.0,WSW,6.9,16.1,N/A,,Clear,240,2013-12-06 19:35:00
12:55 PM,46.2,15.8,30,30.09,10.0,WSW,8.1,-,N/A,,Clear,240,2013-12-06 19:55:00
1:15 PM,47.3,15.1,28,30.08,10.0,West,9.2,18.4,N/A,,Clear,280,2013-12-06 20:15:00
1:35 PM,46.6,14.9,28,30.08,10.0,WSW,5.8,16.1,N/A,,Clear,240,2013-12-06 20:35:00
1:55 PM,47.1,14.5,27,30.08,10.0,WSW,5.8,-,N/A,,Clear,240,2013-12-06 20:55:00
2:15 PM,46.9,15.3,28,30.08,10.0,West,9.2,-,N/A,,Clear,260,2013-12-06 21:15:00
2:35 PM,47.7,14.5,27,30.08,10.0,West,6.9,-,N/A,,Clear,260,2013-12-06 21:35:00
2:55 PM,48.0,11.3,23,30.08,10.0,WSW,4.6,-,N/A,,Clear,250,2013-12-06 21:55:00
3:15 PM,47.8,11.3,23,30.08,10.0,SW,6.9,-,N/A,,Clear,230,2013-12-06 22:15:00
3:35 PM,47.8,10.0,22,30.08,10.0,West,6.9,-,N/A,,Clear,260,2013-12-06 22:35:00
3:55 PM,47.5,8.6,21,30.08,10.0,SW,4.6,-,N/A,,Clear,220,2013-12-06 22:55:00
4:15 PM,47.3,10.2,22,30.08,10.0,SW,3.5,-,N/A,,Clear,230,2013-12-06 23:15:00
4:35 PM,46.6,11.3,24,30.08,10.0,SW,4.6,-,N/A,,Clear,230,2013-12-06 23:35:00
4:55 PM,45.1,11.3,25,30.09,10.0,SW,3.5,-,N/A,,Clear,220,2013-12-06 23:55:00
5:15 PM,42.3,11.3,28,30.09,10.0,Calm,Calm,-,N/A,,Clear,0,2013-12-07 00:15:00
5:35 PM,38.7,10.8,32,30.09,10.0,Calm,Calm,-,N/A,,Clear,0,2013-12-07 00:35:00
5:55 PM,37.2,11.3,34,30.09,10.0,Calm,Calm,-,N/A,,Clear,0,2013-12-07 00:55:00
6:15 PM,34.7,9.5,35,30.09,10.0,Calm,Calm,-,N/A,,Clear,0,2013-12-07 01:15:00
6:35 PM,32.9,9.7,38,30.11,10.0,Calm,Calm,-,N/A,,Clear,0,2013-12-07 01:35:00
6:55 PM,31.6,8.4,38,30.11,10.0,South,3.5,-,N/A,,Clear,170,2013-12-07 01:55:00
7:15 PM,31.6,8.4,38,30.11,10.0,Calm,Calm,-,N/A,,Clear,0,2013-12-07 02:15:00
7:35 PM,31.3,9.7,41,30.11,10.0,Calm,Calm,-,N/A,,Clear,0,2013-12-07 02:35:00
7:55 PM,31.8,9.9,40,30.12,10.0,SW,3.5,-,N/A,,Clear,220,2013-12-07 02:55:00
8:15 PM,29.5,9.7,44,30.12,10.0,South,3.5,-,N/A,,Clear,190,2013-12-07 03:15:00
8:35 PM,28.9,9.7,45,30.12,10.0,Calm,Calm,-,N/A,,Clear,0,2013-12-07 03:35:00
8:55 PM,29.8,10.4,44,30.12,10.0,Calm,Calm,-,N/A,,Clear,0,2013-12-07 03:55:00
9:15 PM,28.8,10.2,46,30.12,10.0,Calm,Calm,-,N/A,,Clear,0,2013-12-07 04:15:00
9:35 PM,29.1,10.4,46,30.12,10.0,Calm,Calm,-,N/A,,Clear,0,2013-12-07 04:35:00
9:55 PM,27.5,10.0,48,30.12,10.0,SSW,3.5,-,N/A,,Clear,210,2013-12-07 04:55:00
10:15 PM,32.5,17.1,53,30.12,10.0,ESE,5.8,-,N/A,,Clear,120,2013-12-07 05:15:00
10:35 PM,33.4,20.3,59,30.12,10.0,SE,5.8,-,N/A,,Clear,140,2013-12-07 05:35:00
10:55 PM,34.3,26.1,72,30.12,10.0,SSE,6.9,-,N/A,,Clear,160,2013-12-07 05:55:00
11:15 PM,33.6,27.3,78,30.12,10.0,SSE,6.9,-,N/A,,Clear,150,2013-12-07 06:15:00
11:35 PM,33.4,27.9,80,30.11,10.0,SSE,4.6,-,N/A,,Clear,160,2013-12-07 06:35:00
11:55 PM,32.9,28.0,82,30.11,10.0,SSE,5.8,-,N/A,,Clear,150,2013-12-07 06:55:00